Flag for Switzerland Weather past 2 weeks in Yverdon-les-Bains, Vaud, Switzerland

Now
67 °F

Mild.


Feels Like: 67 °F
Forecast: 63 / 91 °F
Wind: 1 mph from Southwest

Location: Payerne

Current Time: Jul 2, 2015 at 4:05:13 AM

Latest Report: Jul 2, 2015 at 3:00 AM


Visibility: N/A

Pressure: 30.11 "Hg

Humidity: 78%

Dew point: 60 °F

Location of Yverdon-les-BainsLocation

Historic Weather in Yverdon-les-Bains — Graph

°F

Yverdon-les-Bains temperature yesterday

Maximum temperature yesterday: 91 °F (at 5:00 PM)
Minimum temperature yesterday: 58 °F (at 6:00 AM)
Average temperature yesterday: 75 °F

Past Weeks' High & Low Weather Summary

 TemperatureHumidityPressure
High91 °F (Jul 1, 5:00 PM)97% (Jun 19, 5:00 AM)30.23 "Hg (Jun 19, 5:00 AM)
Low44 °F (Jun 24, 6:00 AM)23% (Jun 28, 3:00 PM)29.73 "Hg (Jun 22, 9:00 PM)
Average65 °F65%30.08 "Hg
* Reported Jun 17 2:00 AM — Jul 2 2:00 AM, Yverdon-les-Bains, Weather by CustomWeather, © 2015

Note: Actual official high and low records may vary slightly from our data, if they occured in-between our weather recording intervals... More about our weather records

Advertising

Yverdon-les-Bains weather history for previous 24 hours

 ConditionsComfort  
Time TempWeatherWind HumidityBarometerVisibility
2:00 AM
Thu, Jul 2
67 °FClear.2 mph78%30.10 "Hg12 mi
1:00 AM69 °FMild.2 mph74%30.09 "HgN/A
12:00 AM71 °FMild.5 mph72%30.07 "HgN/A
11:00 PM
Wed, Jul 1
71 °FClear.2 mph79%30.06 "Hg16 mi
10:00 PM75 °FMild.2 mph66%30.03 "HgN/A
9:00 PM79 °FWarm.1 mph69%30.00 "HgN/A
8:00 PM88 °FPassing clouds.2 mph40%29.96 "Hg19 mi
7:00 PM90 °FHot.5 mph36%29.94 "HgN/A
6:00 PM91 °FHot.3 mph30%29.94 "HgN/A
5:00 PM91 °FHot.2 mph28%29.95 "HgN/A
4:00 PM90 °FHot.3 mph35%29.96 "HgN/A
3:00 PM89 °FHot.1 mph39%29.97 "HgN/A
2:00 PM86 °FWarm.3 mph41%30.00 "HgN/A
1:00 PM85 °FWarm.3 mph45%30.01 "HgN/A
12:00 PM81 °FWarm.2 mph46%30.03 "HgN/A
11:00 AM78 °FWarm.2 mph46%30.06 "HgN/A
10:00 AM75 °FMild.1 mph51%30.07 "HgN/A
9:00 AM71 °FMild.1 mph59%30.08 "HgN/A
8:00 AM67 °FSunny.1 mph74%30.09 "Hg17 mi
7:00 AM62 °FCool.1 mph83%30.11 "HgN/A
6:00 AM58 °FCool.3 mph91%30.11 "HgN/A
5:00 AM60 °FCool.3 mph88%30.10 "HgN/A
4:00 AM60 °FCool.2 mph87%30.09 "HgN/A
Weather by CustomWeather, © 2015

See weather overviewHow to use our weather pages